Tracking 30918 objects as of 2-Jul-2025
HD Live streaming from Space Station
objects crossing your sky now

STARLINK-32670

Track STARLINK-32670 now!
10-day predictions
STARLINK-32670 is classified as:


NORAD ID: 62210
Int'l Code: 2024-229U
Perigee: 489.4 km
Apogee: 491.0 km
Inclination: 43.0 °
Period: 94.3 minutes
Semi major axis: 6861 km
RCS: Unknown
Launch date: December 4, 2024
Source: United States (US)
Launch site: AIR FORCE EASTERN TEST RANGE (AFETR)
Your satellite tracking list
BADR 6
Track 1 satellite(s)




NASA's NSSDC Master Catalog

Two Line Element Set (TLE):
1 62210U 24229U   25182.87138788  .00024216  00000-0  88681-3 0  9997
2 62210  42.9973 247.0574 0001149 281.8297  78.2426 15.27572434 32204
Source of the keplerian elements: AFSPC